Time,TemperatureF,DewpointF,PressureIn,WindDirection,WindDirectionDegrees,WindSpeedMPH,WindSpeedGustMPH,Humidity,HourlyPrecipIn,Conditions,Clouds,dailyrainin,SoftwareType,DateUTC
2013-03-26 00:02:00,25.0,22.0,30.31,WNW,284,5.0,16.0,87,0.00,,,0.00,,2013-03-26 05:02:00,
2013-03-26 00:12:00,25.0,22.0,30.31,WNW,284,5.0,16.0,87,0.00,,,0.00,,2013-03-26 05:12:00,
2013-03-26 00:22:00,25.0,22.0,30.31,West,274,6.0,20.0,87,0.00,,,0.00,,2013-03-26 05:22:00,
2013-03-26 00:32:00,25.0,21.0,30.31,West,279,6.0,18.0,86,0.00,,,0.00,,2013-03-26 05:32:00,
2013-03-26 00:42:00,25.0,21.0,30.31,West,279,6.0,18.0,86,0.00,,,0.00,,2013-03-26 05:42:00,
2013-03-26 00:52:00,24.0,20.0,30.31,WNW,299,6.0,24.0,85,0.00,,,0.00,,2013-03-26 05:52:00,
2013-03-26 01:02:00,24.0,20.0,30.32,West,280,5.0,18.0,86,0.00,,,0.00,,2013-03-26 06:02:00,
2013-03-26 01:12:00,24.0,20.0,30.32,West,280,5.0,18.0,86,0.00,,,0.00,,2013-03-26 06:12:00,
2013-03-26 01:22:00,24.0,20.0,30.32,WNW,292,7.0,16.0,86,0.00,,,0.00,,2013-03-26 06:22:00,
2013-03-26 01:32:00,24.0,20.0,30.32,WNW,285,4.0,21.0,86,0.00,,,0.00,,2013-03-26 06:32:00,
2013-03-26 01:42:00,24.0,20.0,30.32,WNW,285,4.0,21.0,86,0.00,,,0.00,,2013-03-26 06:42:00,
2013-03-26 01:52:00,24.0,21.0,30.32,West,279,6.0,15.0,87,0.00,,,0.00,,2013-03-26 06:52:00,
2013-03-26 02:02:00,23.0,20.0,30.32,WNW,286,5.0,15.0,87,0.00,,,0.00,,2013-03-26 07:02:00,
2013-03-26 02:12:00,23.0,20.0,30.32,WNW,286,5.0,15.0,87,0.00,,,0.00,,2013-03-26 07:12:00,
2013-03-26 02:22:00,23.0,20.0,30.32,West,278,6.0,16.0,87,0.00,,,0.00,,2013-03-26 07:22:00,
2013-03-26 02:33:00,23.0,20.0,30.32,WNW,282,6.0,18.0,87,0.00,,,0.00,,2013-03-26 07:33:00,
2013-03-26 02:42:00,23.0,20.0,30.32,WNW,282,6.0,18.0,87,0.00,,,0.00,,2013-03-26 07:42:00,
2013-03-26 02:53:00,23.0,20.0,30.32,WNW,289,5.0,18.0,87,0.00,,,0.00,,2013-03-26 07:53:00,
2013-03-26 03:02:00,23.0,20.0,30.32,West,269,6.0,17.0,87,0.00,,,0.00,,2013-03-26 08:02:00,
2013-03-26 03:12:00,23.0,20.0,30.32,West,269,6.0,17.0,87,0.00,,,0.00,,2013-03-26 08:12:00,
2013-03-26 03:22:00,23.0,20.0,30.32,West,280,4.0,13.0,88,0.00,,,0.00,,2013-03-26 08:22:00,
2013-03-26 03:32:00,22.0,19.0,30.32,WNW,303,3.0,8.0,89,0.00,,,0.00,,2013-03-26 08:32:00,
2013-03-26 03:42:00,22.0,19.0,30.32,WNW,303,3.0,8.0,89,0.00,,,0.00,,2013-03-26 08:42:00,
2013-03-26 03:52:00,22.0,19.0,30.32,West,276,3.0,13.0,89,0.00,,,0.00,,2013-03-26 08:52:00,
2013-03-26 04:02:00,22.0,19.0,30.32,WNW,288,4.0,11.0,89,0.00,,,0.00,,2013-03-26 09:02:00,
2013-03-26 04:12:00,22.0,19.0,30.32,WNW,288,4.0,11.0,89,0.00,,,0.00,,2013-03-26 09:12:00,
2013-03-26 04:22:00,22.0,19.0,30.32,WNW,284,5.0,13.0,89,0.00,,,0.00,,2013-03-26 09:22:00,
2013-03-26 04:33:00,21.0,18.0,30.32,NW,310,3.0,9.0,89,0.00,,,0.00,,2013-03-26 09:33:00,
2013-03-26 04:42:00,21.0,18.0,30.32,NW,310,3.0,9.0,89,0.00,,,0.00,,2013-03-26 09:42:00,
2013-03-26 04:52:00,21.0,18.0,30.31,West,271,4.0,10.0,89,0.00,,,0.00,,2013-03-26 09:52:00,
2013-03-26 05:02:00,21.0,19.0,30.32,WNW,286,3.0,12.0,90,0.00,,,0.00,,2013-03-26 10:02:00,
2013-03-26 05:12:00,21.0,19.0,30.32,WNW,286,3.0,12.0,90,0.00,,,0.00,,2013-03-26 10:12:00,
2013-03-26 05:22:00,21.0,19.0,30.32,WNW,286,3.0,12.0,90,0.00,,,0.00,,2013-03-26 10:22:00,
2013-03-26 05:32:00,20.0,18.0,30.32,West,279,4.0,15.0,90,0.00,,,0.00,,2013-03-26 10:32:00,
2013-03-26 05:42:00,20.0,18.0,30.32,West,279,4.0,15.0,90,0.00,,,0.00,,2013-03-26 10:42:00,
2013-03-26 05:53:00,20.0,18.0,30.32,West,279,4.0,14.0,90,0.00,,,0.00,,2013-03-26 10:53:00,
2013-03-26 06:03:00,20.0,18.0,30.32,West,274,5.0,12.0,90,0.00,,,0.00,,2013-03-26 11:03:00,
2013-03-26 06:12:00,20.0,18.0,30.32,West,274,5.0,12.0,90,0.00,,,0.00,,2013-03-26 11:12:00,
2013-03-26 06:22:00,20.0,18.0,30.32,West,273,4.0,11.0,90,0.00,,,0.00,,2013-03-26 11:22:00,
2013-03-26 06:32:00,20.0,18.0,30.32,WNW,286,3.0,13.0,90,0.00,,,0.00,,2013-03-26 11:32:00,
2013-03-26 06:42:00,20.0,18.0,30.32,WNW,286,3.0,13.0,90,0.00,,,0.00,,2013-03-26 11:42:00,
2013-03-26 06:52:00,20.0,18.0,30.32,WNW,290,4.0,15.0,90,0.00,,,0.00,,2013-03-26 11:52:00,
2013-03-26 07:03:00,20.0,18.0,30.32,WNW,290,4.0,15.0,90,0.00,,,0.00,,2013-03-26 12:03:00,
2013-03-26 07:12:00,19.0,17.0,30.33,West,276,3.0,14.0,90,0.00,,,0.00,,2013-03-26 12:12:00,
2013-03-26 07:22:00,19.0,17.0,30.33,WNW,290,4.0,8.0,90,0.00,,,0.00,,2013-03-26 12:22:00,
2013-03-26 07:32:00,19.0,17.0,30.34,WNW,286,4.0,12.0,90,0.00,,,0.00,,2013-03-26 12:32:00,
2013-03-26 07:42:00,19.0,17.0,30.34,WNW,286,4.0,12.0,90,0.00,,,0.00,,2013-03-26 12:42:00,
2013-03-26 07:52:00,19.0,17.0,30.34,WNW,285,4.0,11.0,90,0.00,,,0.00,,2013-03-26 12:52:00,
2013-03-26 08:03:00,20.0,17.0,30.35,WNW,288,4.0,15.0,89,0.00,,,0.00,,2013-03-26 13:03:00,
2013-03-26 08:12:00,20.0,17.0,30.35,WNW,288,4.0,15.0,89,0.00,,,0.00,,2013-03-26 13:12:00,
2013-03-26 08:22:00,20.0,17.0,30.35,NW,306,3.0,13.0,88,0.00,,,0.00,,2013-03-26 13:22:00,
2013-03-26 08:32:00,21.0,18.0,30.35,WNW,282,4.0,14.0,88,0.00,,,0.00,,2013-03-26 13:32:00,
2013-03-26 08:42:00,21.0,18.0,30.35,WNW,282,4.0,14.0,88,0.00,,,0.00,,2013-03-26 13:42:00,
2013-03-26 08:52:00,21.0,18.0,30.35,West,265,3.0,10.0,87,0.00,,,0.00,,2013-03-26 13:52:00,
2013-03-26 09:02:00,22.0,18.0,30.36,West,281,4.0,14.0,86,0.00,,,0.00,,2013-03-26 14:02:00,
2013-03-26 09:11:00,22.0,18.0,30.36,West,281,4.0,14.0,86,0.00,,,0.00,,2013-03-26 14:11:00,
2013-03-26 09:22:00,22.0,18.0,30.36,West,280,6.0,13.0,85,0.00,,,0.00,,2013-03-26 14:22:00,
2013-03-26 09:32:00,23.0,19.0,30.36,West,281,7.0,19.0,86,0.00,,,0.00,,2013-03-26 14:32:00,
2013-03-26 09:42:00,23.0,19.0,30.36,West,281,7.0,19.0,86,0.00,,,0.00,,2013-03-26 14:42:00,
2013-03-26 09:53:00,24.0,20.0,30.36,WSW,257,2.0,10.0,85,0.00,,,0.00,,2013-03-26 14:53:00,
2013-03-26 10:02:00,24.0,20.0,30.36,WNW,282,4.0,13.0,85,0.00,,,0.00,,2013-03-26 15:02:00,
2013-03-26 10:12:00,24.0,20.0,30.36,WNW,282,4.0,13.0,85,0.00,,,0.00,,2013-03-26 15:12:00,
2013-03-26 10:22:00,25.0,21.0,30.36,West,280,2.0,10.0,84,0.00,,,0.00,,2013-03-26 15:22:00,
2013-03-26 10:33:00,26.0,22.0,30.36,WNW,282,1.0,8.0,85,0.00,,,0.00,,2013-03-26 15:33:00,
2013-03-26 10:43:00,26.0,22.0,30.36,WNW,282,1.0,8.0,85,0.00,,,0.00,,2013-03-26 15:43:00,
2013-03-26 10:53:00,27.0,23.0,30.36,WNW,291,2.0,8.0,83,0.00,,,0.00,,2013-03-26 15:53:00,
2013-03-26 11:02:00,27.0,23.0,30.36,West,277,3.0,8.0,83,0.00,,,0.00,,2013-03-26 16:02:00,
2013-03-26 11:12:00,27.0,23.0,30.36,West,277,3.0,8.0,83,0.00,,,0.00,,2013-03-26 16:12:00,
2013-03-26 11:22:00,28.0,23.0,30.36,WNW,283,4.0,7.0,81,0.00,,,0.00,,2013-03-26 16:22:00,
2013-03-26 11:32:00,29.0,24.0,30.36,NW,314,3.0,7.0,81,0.00,,,0.00,,2013-03-26 16:32:00,
2013-03-26 11:42:00,29.0,24.0,30.36,NW,314,3.0,7.0,81,0.00,,,0.00,,2013-03-26 16:42:00,
2013-03-26 11:53:00,31.0,26.0,30.36,NW,305,2.0,5.0,80,0.00,,,0.00,,2013-03-26 16:53:00,
2013-03-26 12:02:00,31.0,25.0,30.36,WNW,303,4.0,6.0,79,0.00,,,0.00,,2013-03-26 17:02:00,
2013-03-26 12:12:00,31.0,25.0,30.36,WNW,303,4.0,6.0,79,0.00,,,0.00,,2013-03-26 17:12:00,
2013-03-26 12:23:00,31.0,25.0,30.36,West,280,3.0,7.0,77,0.00,,,0.00,,2013-03-26 17:23:00,
2013-03-26 12:32:00,33.0,27.0,30.36,WNW,292,2.0,5.0,78,0.00,,,0.00,,2013-03-26 17:32:00,
2013-03-26 12:42:00,33.0,27.0,30.36,WNW,292,2.0,5.0,78,0.00,,,0.00,,2013-03-26 17:42:00,
2013-03-26 12:53:00,33.0,27.0,30.36,NW,316,1.0,6.0,77,0.00,,,0.00,,2013-03-26 17:53:00,
2013-03-26 13:02:00,34.0,27.0,30.36,West,272,2.0,7.0,75,0.00,,,0.00,,2013-03-26 18:02:00,
2013-03-26 13:12:00,34.0,27.0,30.36,West,272,2.0,7.0,75,0.00,,,0.00,,2013-03-26 18:12:00,
2013-03-26 13:23:00,34.0,27.0,30.36,West,273,3.0,7.0,75,0.00,,,0.00,,2013-03-26 18:23:00,
2013-03-26 13:34:00,35.0,28.0,30.35,NW,307,2.0,6.0,76,0.00,,,0.00,,2013-03-26 18:34:00,
2013-03-26 13:42:00,35.0,28.0,30.35,NW,307,2.0,6.0,76,0.00,,,0.00,,2013-03-26 18:42:00,
2013-03-26 13:53:00,36.0,29.0,30.35,West,275,2.0,6.0,74,0.00,,,0.00,,2013-03-26 18:53:00,
2013-03-26 14:02:00,36.0,28.0,30.34,WNW,286,3.0,5.0,72,0.00,,,0.00,,2013-03-26 19:02:00,
2013-03-26 14:12:00,36.0,28.0,30.34,WNW,286,3.0,5.0,72,0.00,,,0.00,,2013-03-26 19:12:00,
2013-03-26 14:22:00,37.0,29.0,30.34,West,276,2.0,5.0,72,0.00,,,0.00,,2013-03-26 19:22:00,
2013-03-26 14:32:00,38.0,29.0,30.34,NNW,329,1.0,6.0,69,0.00,,,0.00,,2013-03-26 19:32:00,
2013-03-26 14:42:00,38.0,29.0,30.34,NNW,329,1.0,6.0,69,0.00,,,0.00,,2013-03-26 19:42:00,
2013-03-26 14:53:00,38.0,28.0,30.34,West,277,2.0,6.0,66,0.00,,,0.00,,2013-03-26 19:53:00,
2013-03-26 15:02:00,38.0,28.0,30.33,WSW,244,0.0,7.0,66,0.00,,,0.00,,2013-03-26 20:02:00,
2013-03-26 15:12:00,38.0,28.0,30.33,WSW,244,0.0,7.0,66,0.00,,,0.00,,2013-03-26 20:12:00,
2013-03-26 15:22:00,39.0,27.0,30.33,West,280,1.0,5.0,62,0.00,,,0.00,,2013-03-26 20:22:00,
2013-03-26 15:32:00,39.0,26.0,30.33,West,279,1.0,4.0,60,0.00,,,0.00,,2013-03-26 20:32:00,
2013-03-26 15:42:00,39.0,26.0,30.33,West,279,1.0,4.0,60,0.00,,,0.00,,2013-03-26 20:42:00,
2013-03-26 15:52:00,38.0,26.0,30.33,West,281,1.0,5.0,61,0.00,,,0.00,,2013-03-26 20:52:00,
2013-03-26 16:02:00,38.0,25.0,30.32,WNW,284,0.0,2.0,60,0.00,,,0.00,,2013-03-26 21:02:00,
2013-03-26 16:12:00,38.0,25.0,30.32,WNW,284,0.0,2.0,60,0.00,,,0.00,,2013-03-26 21:12:00,
2013-03-26 16:22:00,38.0,25.0,30.32,WNW,284,0.0,2.0,60,0.00,,,0.00,,2013-03-26 21:22:00,
2013-03-26 16:32:00,38.0,25.0,30.32,WNW,284,0.0,2.0,60,0.00,,,0.00,,2013-03-26 21:32:00,
2013-03-26 16:42:00,38.0,25.0,30.32,WNW,284,0.0,2.0,60,0.00,,,0.00,,2013-03-26 21:42:00,
2013-03-26 17:22:00,37.0,25.0,30.31,NNE,22,0.0,4.0,61,0.00,,,0.00,,2013-03-26 22:22:00,
2013-03-26 17:33:00,37.0,25.0,30.31,NNE,22,0.0,4.0,61,0.00,,,0.00,,2013-03-26 22:33:00,
2013-03-26 17:42:00,37.0,25.0,30.31,NNE,22,0.0,4.0,61,0.00,,,0.00,,2013-03-26 22:42:00,
2013-03-26 18:22:00,37.0,24.0,30.30,NNW,348,0.0,1.0,60,0.00,,,0.00,,2013-03-26 23:22:00,
2013-03-26 18:32:00,37.0,25.0,30.30,NNW,348,0.0,1.0,61,0.00,,,0.00,,2013-03-26 23:32:00,
2013-03-26 18:43:00,37.0,25.0,30.30,NNW,348,0.0,1.0,61,0.00,,,0.00,,2013-03-26 23:43:00,
2013-03-26 18:53:00,36.0,25.0,30.31,North,349,1.0,3.0,63,0.00,,,0.00,,2013-03-26 23:53:00,
2013-03-26 19:02:00,36.0,28.0,30.31,NE,36,0.0,4.0,72,0.00,,,0.00,,2013-03-27 00:02:00,
2013-03-26 19:12:00,36.0,28.0,30.31,NE,36,0.0,4.0,72,0.00,,,0.00,,2013-03-27 00:12:00,
2013-03-26 19:22:00,35.0,28.0,30.31,NE,36,2.0,4.0,76,0.00,,,0.00,,2013-03-27 00:22:00,
2013-03-26 19:32:00,35.0,29.0,30.31,ENE,60,2.0,4.0,77,0.00,,,0.00,,2013-03-27 00:32:00,
2013-03-26 19:42:00,35.0,29.0,30.31,ENE,60,2.0,4.0,77,0.00,,,0.00,,2013-03-27 00:42:00,
2013-03-26 19:52:00,35.0,28.0,30.31,NE,40,0.0,5.0,74,0.00,,,0.00,,2013-03-27 00:52:00,
2013-03-26 20:02:00,34.0,28.0,30.32,NE,40,0.0,0.0,77,0.00,,,0.00,,2013-03-27 01:02:00,
2013-03-26 20:12:00,34.0,28.0,30.32,NE,40,0.0,0.0,77,0.00,,,0.00,,2013-03-27 01:12:00,
2013-03-26 20:22:00,34.0,27.0,30.32,NE,38,1.0,2.0,76,0.00,,,0.00,,2013-03-27 01:22:00,
2013-03-26 20:33:00,34.0,27.0,30.32,NE,38,1.0,2.0,76,0.00,,,0.00,,2013-03-27 01:33:00,
2013-03-26 20:42:00,34.0,27.0,30.32,NE,38,1.0,2.0,76,0.00,,,0.00,,2013-03-27 01:42:00,
2013-03-26 20:53:00,34.0,27.0,30.32,NE,36,1.0,3.0,75,0.00,,,0.00,,2013-03-27 01:53:00,
2013-03-26 21:02:00,34.0,27.0,30.32,NE,40,3.0,4.0,76,0.00,,,0.00,,2013-03-27 02:02:00,
2013-03-26 21:12:00,34.0,27.0,30.32,NE,40,3.0,4.0,76,0.00,,,0.00,,2013-03-27 02:12:00,
2013-03-26 21:22:00,34.0,26.0,30.32,NE,46,3.0,6.0,73,0.00,,,0.00,,2013-03-27 02:22:00,
2013-03-26 21:32:00,33.0,27.0,30.32,NE,35,4.0,8.0,77,0.00,,,0.00,,2013-03-27 02:32:00,
2013-03-26 21:42:00,33.0,27.0,30.32,NE,35,4.0,8.0,77,0.00,,,0.00,,2013-03-27 02:42:00,
2013-03-26 21:53:00,33.0,28.0,30.32,NE,44,4.0,7.0,80,0.00,,,0.00,,2013-03-27 02:53:00,
2013-03-26 22:02:00,32.0,27.0,30.33,NE,44,0.0,2.0,83,0.00,,,0.00,,2013-03-27 03:02:00,
2013-03-26 22:12:00,32.0,27.0,30.33,NE,44,0.0,2.0,83,0.00,,,0.00,,2013-03-27 03:12:00,
2013-03-26 22:22:00,31.0,27.0,30.33,NE,45,0.0,2.0,85,0.00,,,0.00,,2013-03-27 03:22:00,
2013-03-26 22:33:00,31.0,28.0,30.33,NE,38,1.0,3.0,87,0.00,,,0.00,,2013-03-27 03:33:00,
2013-03-26 22:42:00,31.0,28.0,30.33,NE,38,1.0,3.0,87,0.00,,,0.00,,2013-03-27 03:42:00,
2013-03-26 22:53:00,30.0,27.0,30.34,NE,38,0.0,0.0,87,0.00,,,0.00,,2013-03-27 03:53:00,
2013-03-26 23:02:00,30.0,27.0,30.34,NE,38,0.0,0.0,88,0.00,,,0.00,,2013-03-27 04:02:00,
2013-03-26 23:13:00,30.0,27.0,30.34,NE,38,0.0,0.0,88,0.00,,,0.00,,2013-03-27 04:13:00,
2013-03-26 23:23:00,29.0,26.0,30.34,NE,38,0.0,0.0,89,0.00,,,0.00,,2013-03-27 04:23:00,
2013-03-26 23:33:00,29.0,26.0,30.34,NE,38,0.0,0.0,90,0.00,,,0.00,,2013-03-27 04:33:00,
2013-03-26 23:42:00,29.0,26.0,30.34,NE,38,0.0,0.0,90,0.00,,,0.00,,2013-03-27 04:42:00,
2013-03-26 23:52:00,29.0,27.0,30.34,NE,38,0.0,1.0,91,0.00,,,0.00,,2013-03-27 04:52:00,